Regional Weather Roundup
Issued by NWS

Home | Current Version | Previous Version | Text Only | Print | Product List | Glossary Off
Versions: 1 2 3 4 5 6 7 8 9 10 11 12 13 14 15 16 17 18 19 20 21 22 23 24 25 26 27 28 29 30 31 32 33 34 35 36 37 38 39 40 41 42 43 44 45 46 47 48 49 50

000
ASUS43 KLOT 292204
RWRIL

ILLINOIS REGIONAL WEATHER ROUNDUP
NATIONAL WEATHER SERVICE CHICAGO/ROMEOVILLE IL
500 PM CDT SUN MAY 29 2016

NOTE: "FAIR" INDICATES FEW OR NO CLOUDS BELOW 12,000 FEET WITH NO
SIGNIFICANT WEATHER AND/OR OBSTRUCTIONS TO VISIBILITY.

* THESE STATIONS ARE NOT UNDER NWS QUALITY CONTROL. THEY ALSO MAY NOT
  REPORT WEATHER SUCH AS PRECIPITATION OR FOG.

ILZ001-002-007-009-015-016-024-292300-
NORTHWEST ILLINOIS

CITY           SKY/WX    TMP DP  RH WIND       PRES   REMARKS
MOLINE         SUNNY     82  56  40 W10       30.01F HX  82
STERLING*      PTSUNNY   80  59  48 W16       30.00F HX  81
$$

ILZ003-004-008-010-011-017-018-292300-
NORTH CENTRAL ILLINOIS

CITY           SKY/WX    TMP DP  RH WIND       PRES   REMARKS
ROCKFORD       MOSUNNY   80  58  46 W10       30.01F HX  80
FREEPORT*      MOSUNNY   77  57  49 W14       30.01S
ROCHELLE*      PTSUNNY   79  59  50 W17       30.01F HX  80
$$

ILZ005-006-012>014-019>023-292300-
NORTHEAST ILLINOIS

CITY           SKY/WX    TMP DP  RH WIND       PRES   REMARKS
CHICAGO-OHARE  MOSUNNY   77  58  51 W16G22    29.98F
CHICAGO-MIDWAY MOSUNNY   81  58  45 W13G21    29.99F HX  81
AURORA         SUNNY     80  60  50 W16       30.01S HX  81
LANSING*       PTSUNNY   80  57  44 W7        30.00F HX  81
WAUKEGAN       MOSUNNY   79  57  46 W12G22    29.96F HX  80
DUPAGE AIRPORT SUNNY     77  58  51 W10       29.99F
WHEELING       PTSUNNY   78  57  48 W10G21    29.99S
NORTHERLY ISL    N/A     78  54  43 SW6         N/A
NORTHERLY ISL    N/A     78  54  43 SW6         N/A
$$

LMZ740>746-292300-
SOUTHERN LAKE MICHIGAN

STATION/POSITION SKY/WX   TEMP    WIND        PRES    VSBY  WAVE
                          AIR SEA DIR/SP/G                  HT/PER
                          (F)     (DEG/KT/KT) (MB)    (MI)  (FT/S)
SOUTHERN BUOY              58 51  180/ 10/ 12 1014.6          1
WILMETTE HARBOR            67 54  280/  6/  8   N/A           1/ 2
HARRISON CRIB              76     240/ 14/ 17   N/A
BURNHAM HARBOR             78     260/  7/ 17   N/A
CALUMET HARBOR             80     230/  7/ 16 1015.4F
BURNS HARBOR               66     310/ 11/ 13 1016.3F
MICHIGAN CITY              64     230/  4/  4   N/A
MICHIGAN CITY 6N           63 58  300/  8/  8   N/A           1/ 3
ST. JOSEPH                 62 61  290/  8/ 10   N/A           1/ 2
$$

ILZ025>027-034>036-040-047-049-050-058-095>099-292300-
WEST-CENTRAL ILLINOIS

CITY           SKY/WX    TMP DP  RH WIND       PRES   REMARKS
QUINCY         MOSUNNY   83  57  41 W12       30.05F HX  82
MACOMB*        MOSUNNY   82  56  40 W13       30.06F HX  81
PITTSFIELD*    SUNNY     82  59  46 NW5       30.07F HX  82
$$

ILZ028>032-037-038-041>044-048-051>054-059>061-292300-
CENTRAL ILLINOIS

CITY           SKY/WX    TMP DP  RH WIND       PRES   REMARKS
BLOOMINGTON    MOSUNNY   81  60  48 W14       30.06F HX  81
DECATUR        MOSUNNY   84  53  34 W10       30.04F HX  82
PEORIA         MOSUNNY   83  55  38 W7        30.03F HX  82
SPRINGFIELD    MOSUNNY   86  55  34 W16       30.05F HX  84
TAYLORVILLE    NOT AVBL
$$

ILZ033-039-045-046-055>057-062-063-292300-
EAST-CENTRAL ILLINOIS

CITY           SKY/WX    TMP DP  RH WIND       PRES   REMARKS
CHAMPAIGN      SUNNY     84  54  35 NW16      30.04S HX  83
MATTOON        SUNNY     83  56  39 W14       30.03F HX  82
$$

ILZ079-100>102-292300-
SOUTHWEST ILLINOIS

CITY           SKY/WX    TMP DP  RH WIND       PRES   REMARKS
ALTON          MOSUNNY   84  55  37 NW9       30.06F HX  83
BELLEVILLE     CLOUDY    86  60  40 VRB3      30.04F HX  85
CAHOKIA*       CLOUDY    87  55  33 VRB6      30.04F HX  85
SPARTA*        PTSUNNY   82  63  52 NW3       30.07F HX  83
$$

ILZ064>066-069>071-074>076-080>082-084>086-088>090-092>094-292300-
SOUTH-CENTRAL ILLINOIS

CITY           SKY/WX    TMP DP  RH WIND       PRES   REMARKS
CARBONDALE     SUNNY     85  57  38 W7        30.05F HX  84
MARION         PTSUNNY   84  59  42 NW8       30.06F HX  84
MT. VERNON     MOSUNNY   82  59  44 CALM      30.06F HX  82
SALEM*         MOSUNNY   83  60  44 W7        30.06F HX  83
$$

ILZ067-068-072-073-078-083-087-091-292300-
SOUTHEAST ILLINOIS

CITY           SKY/WX    TMP DP  RH WIND       PRES   REMARKS
LAWRENCEVILLE  MOSUNNY   87  58  37 NW14      30.03F HX  86
FLORA*         SUNNY     85  59  41 NW10      30.05F HX  85
HARRISBURG*    MOSUNNY   84  65  53 N6        30.05S HX  86
ROBINSON*      MOSUNNY   82  59  45 NW7G20    30.04S HX  82
$$

ABBREVIATIONS USED IN REMARKS
   TC - TEMPERATURE IN CELSIUS
  WCI - WIND CHILL INDEX
   HX - HEAT INDEX
  VSB - VISIBILITY
$$





USA.gov is the U.S. government's official web portal to all federal, state and local government web resources and services.